Regional Weather Roundup
Issued by NWS Portland, ME

Current Version | Previous Version | Text Only | Print | Product List | Glossary Off
Versions: 1 2 3 4 5 6 7 8 9 10 11 12 13 14 15 16 17 18 19 20 21 22 23 24 25 26 27 28 29 30 31 32 33 34 35 36 37 38 39 40 41 42 43 44 45 46 47 48 49 50
807 ASUS41 KGYX 281005 RWRGYX WEATHER ROUNDUP FOR MAINE AND NEW HAMPSHIRE NATIONAL WEATHER SERVICE GRAY ME 600 AM EDT TUE MAR 28 2017 MEZ002-005-006-010-012-015-018-020-021-024-026-027-029-281100- MAINE CITY SKY/WX TMP DP RH WIND PRES REMARKS PORTLAND CLOUDY 32 31 96 VRB7 30.02F SANFORD CLOUDY 32 32 100 CALM 30.01S BAR HARBOR CLOUDY 32 31 96 NE8 30.02S FOG WISCASSET CLOUDY 33 32 96 VRB3 30.04S ROCKLAND CLOUDY 33 31 92 N7 30.02S FRYEBURG CLOUDY 32 31 96 CALM 30.00F LEWISTONAUBURN CLOUDY 31 30 96 NE9 30.00F AUGUSTA CLOUDY 30 28 92 N6 30.03R WATERVILLE CLOUDY 30 29 96 N6 30.01R FOG BANGOR CLOUDY 30 29 96 NE8 30.02F FOG GREENVILLE N/A 25 25 100 SE3 29.94S MILLINOCKET CLOUDY 27 27 100 NE3 30.04F FOG HOULTON CLOUDY 26 24 92 E5 30.04S PRESQUE ISLE CLOUDY 26 23 88 E3 30.05F FRENCHVILLE CLOUDY 22 19 89 E8 30.00F FOG CARIBOU CLOUDY 25 22 88 E5 30.03F FOG $$ NHZ002-005-008-009-011-012-014-281100- NEW HAMPSHIRE CITY SKY/WX TMP DP RH WIND PRES REMARKS PORTSMOUTH CLOUDY 34 31 92 NE6 30.00S ROCHESTER CLOUDY 33 30 88 CALM 30.00R NASHUA CLOUDY 34 34 100 CALM 30.02R MANCHESTER CLOUDY 35 31 85 CALM 29.99S CONCORD CLOUDY 34 32 92 CALM 29.99S LACONIA CLOUDY 33 31 92 NE3 29.99S PLYMOUTH CLOUDY 33 32 99 CALM 29.98F BERLIN CLOUDY 32 29 88 CALM 29.94F FOG WHITEFIELD CLOUDY 33 30 88 CALM 29.93F JAFFREY FOG 34 33 96 CALM 29.96F VSB 3/4 KEENE CLOUDY 34 34 100 CALM 29.96S LEBANON CLOUDY 35 33 92 CALM 29.95F MT WASHINGTON FOG 34 34 100 W33 N/A VSB 0 WCI 19 $$ VTZ005-007-008-281100- VERMONT CITY SKY/WX TMP DP RH WIND PRES REMARKS ST JOHNSBURY N/A 35 34 96 MISG 29.93F BURLINGTON CLOUDY 38 36 92 CALM 29.90S $$ MAZ007-012-024-CTZ003-RIZ002-NYZ038-NYZ072-281100- SOUTHERN NEW ENGLAND AND NY CITY SKY/WX TMP DP RH WIND PRES REMARKS BOSTON CLOUDY 36 34 92 CALM 30.03R WORCESTER FOG 33 32 96 S5 29.98R VSB 1/4 NANTUCKET FOG 38 37 97 NE5 30.01R VSB 1 PROVIDENCE CLOUDY 40 37 89 NE6 30.00F FOG HARTFORD LGT RAIN 38 38 100 CALM 29.98S VSB 1/4 ALBANY MOCLDY 39 37 92 CALM 29.94S FOG NEW YORK CITY LGT RAIN 43 40 89 E10 29.95S FOG $$ ANZ081-ANZ082-ANZ150-NHZ014-MEZ023>029-281100- COASTAL MARINE OBSERVATIONS STATION/POSITION TIME TEMP WIND PRES WAVE AIR SEA DIR/SP/G HT/PER (UTC) (F) (DEG/KT/KT) (MB) (FT/S) MOUNT DESERT ROC 1000 35 1015.7R MATINICUS ROCK 0900 34 20/ 12/ 13 1015.5R ISLE OF SHOALS 0900 35 20/ 9/ 10 1016.1S JEFFREYS LEDGE 0906 41 N/A 5/ 7 CASHES LEDGE BUO 0850 36 40 1015.5 5/ 5 GEORGES BANK BUO 0850 42 40 1013.9 5/ 7 $$ .............KEY.............. WCI - WIND CHILL TC - TEMPERATURE IN CELSIUS VSB - VISIBILITY IN MILES HX - HEAT INDEX FAIR- INDICATES FEW OR NO CLOUDS BELOW 12,000 FT, WITH NO SIGNIFICANT WEATHER AND/OR OBSTRUCTIONS TO VISIBILITY.

USA.gov is the U.S. government's official web portal to all federal, state and local government web resources and services.